UAL8301 KMIA-KORD

Flight info

Callsign UAL8301
Flight time N/A
Altitude 38000
Route HURCN4 KPASA Q118 KAILL/N0487F370 Q118 VOSTK/N0490F380 Q118 HEVAN BONNT VEECK5
Aircraft B77W/H-SDE1E2E3FGHIJ2J3J4J5M1RWXY/LB1D1

Departure

Time 2026-04-30 14:17
Airport Miami International Airport (KMIA)

Arrival

Time N/A
Airport Chicago O'Hare International Airport (KORD)
Time Latitude Longitude Altitude Speed Heading
2026-04-30 12:43 25.79102 -80.27417 20 ft 0 kts 90°
2026-04-30 13:58 25.79090 -80.27412 23 ft 4 kts 165°
2026-04-30 13:59 25.79064 -80.27414 21 ft 4 kts 186°
2026-04-30 13:59 25.79038 -80.27414 21 ft 1 kts 174°
2026-04-30 14:02 25.79010 -80.27416 23 ft 8 kts 189°
2026-04-30 14:02 25.78958 -80.27440 26 ft 8 kts 218°
2026-04-30 14:02 25.78924 -80.27491 28 ft 8 kts 239°
2026-04-30 14:03 25.78904 -80.27550 27 ft 8 kts 254°
2026-04-30 14:03 25.78891 -80.27612 26 ft 9 kts 259°
2026-04-30 14:03 25.78883 -80.27682 24 ft 10 kts 265°
2026-04-30 14:03 25.78877 -80.27758 23 ft 10 kts 265°
2026-04-30 14:04 25.78874 -80.27834 24 ft 10 kts 268°
2026-04-30 14:04 25.78872 -80.27910 28 ft 10 kts 269°
2026-04-30 14:04 25.78893 -80.27982 27 ft 10 kts 298°
2026-04-30 14:04 25.78927 -80.28048 27 ft 10 kts 300°
2026-04-30 14:05 25.78963 -80.28117 32 ft 11 kts 299°
2026-04-30 14:05 25.79000 -80.28192 29 ft 11 kts 299°
2026-04-30 14:05 25.79038 -80.28266 32 ft 11 kts 299°
2026-04-30 14:05 25.79078 -80.28344 30 ft 12 kts 300°
2026-04-30 14:06 25.79130 -80.28431 26 ft 15 kts 308°
2026-04-30 14:06 25.79238 -80.28631 20 ft 15 kts 298°
2026-04-30 14:07 25.79348 -80.28852 19 ft 17 kts 301°
2026-04-30 14:07 25.79407 -80.28963 21 ft 17 kts 300°
2026-04-30 14:07 25.79465 -80.29074 21 ft 17 kts 299°
2026-04-30 14:08 25.79578 -80.29298 28 ft 17 kts 299°
2026-04-30 14:08 25.79635 -80.29408 25 ft 17 kts 300°
2026-04-30 14:08 25.79751 -80.29632 19 ft 17 kts 300°
2026-04-30 14:09 25.79812 -80.29755 17 ft 18 kts 299°
2026-04-30 14:09 25.79872 -80.29875 18 ft 12 kts 298°
2026-04-30 14:09 25.79966 -80.29847 17 ft 9 kts 72°
2026-04-30 14:10 25.79975 -80.29779 18 ft 9 kts 85°
2026-04-30 14:10 25.79979 -80.29711 19 ft 9 kts 86°
2026-04-30 14:10 25.79982 -80.29641 19 ft 9 kts 88°
2026-04-30 14:10 25.79984 -80.29568 19 ft 10 kts 88°
2026-04-30 14:11 25.79988 -80.29491 19 ft 10 kts 87°
2026-04-30 14:11 25.79991 -80.29415 20 ft 10 kts 87°
2026-04-30 14:11 25.79994 -80.29338 23 ft 10 kts 87°
2026-04-30 14:11 25.79997 -80.29261 25 ft 10 kts 87°
2026-04-30 14:12 25.80002 -80.29152 27 ft 18 kts 87°
2026-04-30 14:12 25.80008 -80.29010 30 ft 18 kts 87°
2026-04-30 14:12 25.80015 -80.28871 29 ft 18 kts 86°
2026-04-30 14:12 25.80022 -80.28729 27 ft 18 kts 87°
2026-04-30 14:13 25.80029 -80.28585 23 ft 20 kts 87°
2026-04-30 14:13 25.80037 -80.28426 20 ft 21 kts 87°
2026-04-30 14:13 25.80044 -80.28264 20 ft 21 kts 87°
2026-04-30 14:13 25.80050 -80.28101 17 ft 21 kts 89°
2026-04-30 14:14 25.80053 -80.27938 17 ft 21 kts 88°
2026-04-30 14:14 25.80060 -80.27774 20 ft 21 kts 87°
2026-04-30 14:14 25.80067 -80.27613 21 ft 21 kts 87°
2026-04-30 14:14 25.80073 -80.27449 26 ft 21 kts 88°
2026-04-30 14:15 25.80079 -80.27286 26 ft 21 kts 88°
2026-04-30 14:15 25.80084 -80.27125 28 ft 20 kts 87°
2026-04-30 14:15 25.80113 -80.27005 30 ft 15 kts 54°
2026-04-30 14:15 25.80187 -80.26987 30 ft 11 kts 319°
2026-04-30 14:16 25.80199 -80.27074 29 ft 17 kts 264°
2026-04-30 14:16 25.80183 -80.27410 24 ft 81 kts 267°
2026-04-30 14:16 25.80146 -80.28312 20 ft 153 kts 267°
2026-04-30 14:16 25.80088 -80.29667 235 ft 189 kts 266°
2026-04-30 14:17 25.80033 -80.31182 832 ft 203 kts 267°
2026-04-30 14:17 25.80012 -80.32797 1484 ft 217 kts 270°
2026-04-30 14:17 25.80158 -80.34560 1904 ft 241 kts 277°
2026-04-30 14:17 25.80404 -80.36424 2642 ft 249 kts 277°
2026-04-30 14:18 25.80666 -80.38356 3352 ft 258 kts 282°
2026-04-30 14:18 25.81442 -80.40186 4012 ft 268 kts 306°
2026-04-30 14:18 25.83870 -80.43374 5793 ft 273 kts 309°
2026-04-30 14:19 25.86981 -80.45719 7261 ft 279 kts 334°
2026-04-30 14:19 25.88761 -80.46602 8096 ft 280 kts 334°
2026-04-30 14:19 25.90541 -80.47490 8967 ft 281 kts 334°
2026-04-30 14:20 25.92327 -80.48387 9811 ft 283 kts 333°
2026-04-30 14:20 25.94136 -80.49299 10497 ft 290 kts 333°
2026-04-30 14:20 25.98129 -80.51331 10934 ft 342 kts 333°
2026-04-30 14:21 26.00335 -80.52456 11245 ft 362 kts 333°
2026-04-30 14:21 26.02661 -80.53641 11941 ft 371 kts 333°
2026-04-30 14:21 26.07399 -80.56057 13849 ft 377 kts 333°
2026-04-30 14:22 26.09794 -80.57280 14713 ft 381 kts 333°
2026-04-30 14:22 26.14679 -80.59762 16317 ft 391 kts 334°
2026-04-30 14:22 26.17186 -80.60970 17113 ft 396 kts 335°
2026-04-30 14:23 26.22276 -80.63380 18661 ft 405 kts 335°
2026-04-30 14:23 26.27528 -80.65882 19975 ft 415 kts 335°
2026-04-30 14:24 26.32885 -80.68448 21248 ft 424 kts 335°
2026-04-30 14:24 26.35610 -80.69756 21876 ft 428 kts 335°
2026-04-30 14:25 26.40975 -80.72737 22911 ft 437 kts 321°
2026-04-30 14:25 26.45089 -80.77731 23767 ft 446 kts 311°
2026-04-30 14:26 26.49282 -80.82888 24769 ft 451 kts 313°
2026-04-30 14:26 26.51444 -80.85437 25269 ft 453 kts 316°
2026-04-30 14:26 26.56292 -80.90025 26166 ft 460 kts 322°
2026-04-30 14:27 26.58827 -80.92219 26647 ft 464 kts 322°
2026-04-30 14:27 26.61355 -80.94409 27100 ft 466 kts 322°
2026-04-30 14:27 26.63908 -80.96656 27542 ft 469 kts 321°
2026-04-30 14:28 26.69032 -81.01265 28403 ft 476 kts 320°
2026-04-30 14:28 26.71603 -81.03606 28779 ft 479 kts 320°
2026-04-30 14:28 26.74191 -81.05971 29150 ft 482 kts 320°
2026-04-30 14:28 26.76796 -81.08352 29519 ft 484 kts 320°
2026-04-30 14:29 26.82045 -81.13151 30192 ft 489 kts 320°
2026-04-30 14:29 26.87253 -81.17913 31169 ft 482 kts 320°
2026-04-30 14:30 26.94924 -81.24937 32876 ft 468 kts 320°
2026-04-30 14:31 26.99929 -81.29528 33880 ft 462 kts 320°
2026-04-30 14:31 27.04885 -81.34029 34741 ft 455 kts 324°
2026-04-30 14:31 27.07513 -81.35904 35097 ft 453 kts 329°
2026-04-30 14:32 27.13025 -81.39253 35871 ft 448 kts 331°
2026-04-30 14:32 27.15774 -81.40912 36002 ft 450 kts 330°
2026-04-30 14:33 27.21245 -81.44324 36006 ft 448 kts 330°
2026-04-30 14:33 27.29344 -81.49489 36012 ft 445 kts 329°
2026-04-30 14:34 27.34707 -81.52853 36014 ft 445 kts 333°
2026-04-30 14:34 27.40414 -81.55581 36023 ft 446 kts 337°
2026-04-30 14:35 27.48553 -81.59094 36017 ft 447 kts 337°
2026-04-30 14:36 27.54325 -81.61679 36006 ft 447 kts 336°
2026-04-30 14:36 27.60051 -81.64294 35995 ft 447 kts 336°
2026-04-30 14:37 27.65812 -81.66937 35999 ft 447 kts 336°
2026-04-30 14:37 27.71572 -81.69581 35998 ft 447 kts 335°
2026-04-30 14:38 27.77338 -81.72229 35998 ft 447 kts 335°
2026-04-30 14:38 27.83057 -81.74857 36001 ft 446 kts 335°
2026-04-30 14:39 27.88802 -81.77500 36004 ft 446 kts 335°
2026-04-30 14:39 27.94547 -81.80147 36000 ft 445 kts 335°
2026-04-30 14:40 28.03135 -81.84109 36009 ft 444 kts 335°
2026-04-30 14:40 28.08860 -81.86754 36010 ft 444 kts 335°
2026-04-30 14:41 28.14535 -81.89380 36007 ft 444 kts 334°
2026-04-30 14:41 28.20033 -81.92439 36005 ft 438 kts 323°
2026-04-30 14:42 28.24993 -81.96469 35993 ft 438 kts 322°
2026-04-30 14:42 28.29938 -82.00524 35991 ft 439 kts 322°
2026-04-30 14:43 28.34934 -82.04514 35992 ft 439 kts 323°
2026-04-30 14:43 28.39913 -82.08457 35991 ft 440 kts 323°
2026-04-30 14:44 28.44926 -82.12434 35992 ft 440 kts 323°
2026-04-30 14:44 28.49940 -82.16419 35977 ft 440 kts 323°
2026-04-30 14:45 28.54951 -82.20406 35978 ft 440 kts 322°
2026-04-30 14:45 28.59931 -82.24374 35985 ft 439 kts 322°
2026-04-30 14:46 28.64934 -82.28367 35989 ft 439 kts 322°
2026-04-30 14:46 28.69928 -82.32357 35992 ft 439 kts 322°
2026-04-30 14:47 28.74933 -82.36360 35993 ft 438 kts 322°
2026-04-30 14:47 28.79882 -82.40323 35993 ft 438 kts 322°
2026-04-30 14:48 28.84861 -82.44315 35998 ft 437 kts 322°
2026-04-30 14:48 28.89827 -82.48302 36000 ft 437 kts 322°
2026-04-30 14:49 28.94790 -82.52292 36003 ft 436 kts 322°
2026-04-30 14:49 28.99719 -82.56258 35996 ft 436 kts 322°
2026-04-30 14:50 29.07154 -82.62249 35988 ft 436 kts 322°
2026-04-30 14:51 29.14581 -82.68245 35977 ft 436 kts 322°
2026-04-30 14:52 29.21970 -82.74222 35965 ft 435 kts 322°
2026-04-30 14:52 29.29379 -82.80225 35959 ft 435 kts 322°
2026-04-30 14:53 29.36776 -82.86230 35958 ft 434 kts 321°
2026-04-30 14:54 29.46587 -82.94212 35958 ft 434 kts 321°
2026-04-30 14:55 29.54316 -82.99632 35959 ft 439 kts 331°
2026-04-30 14:56 29.65607 -83.04965 35964 ft 440 kts 333°
2026-04-30 14:57 29.74087 -83.08978 35965 ft 439 kts 333°
2026-04-30 14:58 29.85382 -83.14365 35964 ft 439 kts 333°
2026-04-30 14:58 29.93801 -83.18388 35957 ft 438 kts 333°
2026-04-30 15:00 30.07870 -83.25127 35955 ft 437 kts 332°
2026-04-30 15:01 30.19037 -83.30492 35956 ft 435 kts 332°
2026-04-30 15:01 30.27418 -83.34527 35948 ft 434 kts 332°
2026-04-30 15:02 30.32984 -83.37216 35949 ft 433 kts 332°
2026-04-30 15:03 30.46834 -83.43925 35947 ft 432 kts 332°
2026-04-30 15:04 30.60687 -83.50654 35955 ft 431 kts 332°
2026-04-30 15:06 30.74427 -83.57350 35953 ft 428 kts 332°
2026-04-30 15:07 30.85362 -83.62692 35969 ft 424 kts 332°
2026-04-30 15:08 30.96175 -83.67989 35965 ft 421 kts 332°
2026-04-30 15:09 31.09613 -83.74591 35976 ft 417 kts 332°
2026-04-30 15:10 31.20251 -83.79831 35976 ft 416 kts 332°
2026-04-30 15:11 31.36153 -83.87688 35962 ft 411 kts 331°
2026-04-30 15:13 31.49251 -83.94180 35964 ft 409 kts 332°
2026-04-30 15:14 31.68972 -83.99412 35956 ft 418 kts 341°
2026-04-30 15:17 31.94630 -84.05125 35935 ft 418 kts 341°
2026-04-30 15:19 32.17481 -84.10247 36855 ft 414 kts 340°